Home > Weather > Tucson > Past weeks

Flag for U.S.A. Weather for the Past 2 Weeks in Tucson, Arizona, U.S.A.

Now
54 °F

Clear.


Feels Like: 51 °F
Forecast: 45 / 78 °F
Wind: 8 mph from Southeast

Location: Davis-Monthan Air Force Base

Current Time: Feb 9, 2016 at 1:19:53 AM

Latest Report: Feb 8, 2016 at 11:58 PM


Visibility: 10 mi

Pressure: 30.11 "Hg (27.49 "Hg at 758m altitude)

Humidity: 28%

Dew point: 21 °F

Location of TucsonLocation

Historic Weather in Tucson — Graph

°F

Tucson Temperature Yesterday

Maximum temperature yesterday: 80 °F (at 3:58 PM)
Minimum temperature yesterday: 44 °F (at 4:58 AM)
Average temperature yesterday: 61 °F

High & Low Weather Summary for the Past Weeks

 TemperatureHumidityPressure
High80 °F (Feb 8, 3:58 PM)92% (Feb 1, 1:58 AM)30.32 "Hg (Feb 1, 1:58 AM)
Low26 °F (Feb 3, 5:58 AM)6% (Feb 6, 4:58 PM)29.59 "Hg (Feb 1, 12:58 AM)
Average50 °F35%30.08 "Hg
* Reported Jan 24 11:58 PM — Feb 8 11:58 PM, Tucson, Weather by CustomWeather, © 2016

Note: Actual official high and low records may vary slightly from our data, if they occured in-between our weather recording intervals... More about our weather records

Advertising

Tucson Weather History for the Previous 24 Hours

 ConditionsComfort  
Time TempWeatherWind HumidityBarometerVisibility
11:58 PM
Mon, Feb 8
54 °FClear.8 mph28%30.11 "Hg10 mi
10:58 PM56 °FClear.9 mph25%30.11 "Hg10 mi
9:58 PM58 °FClear.3 mph24%30.11 "Hg10 mi
8:58 PM58 °FClear.2 mph23%30.11 "Hg10 mi
7:58 PM61 °FClear.8 mph20%30.10 "Hg10 mi
6:58 PM69 °FClear.8 mph15%30.09 "Hg10 mi
5:58 PM74 °FSunny.7 mph12%30.06 "Hg10 mi
4:58 PM78 °FSunny.13 mph10%30.06 "Hg10 mi
3:58 PM80 °FSunny.6 mph9%30.04 "Hg10 mi
2:58 PM80 °FSunny.9 mph10%30.04 "Hg10 mi
1:58 PM78 °FSunny.3 mph10%30.06 "Hg10 mi
12:58 PM77 °FSunny.2 mph11%30.10 "Hg10 mi
11:58 AM74 °FSunny.13 mph12%30.13 "Hg10 mi
10:58 AM72 °FSunny.8 mph12%30.15 "Hg10 mi
9:58 AM67 °FSunny.9 mph14%30.17 "Hg10 mi
8:58 AM60 °FSunny.8 mph19%30.18 "Hg10 mi
7:58 AM52 °FSunny.3 mph25%30.17 "Hg10 mi
6:58 AM49 °FClear.12 mph27%30.16 "Hg10 mi
5:58 AM47 °FClear.5 mph30%30.14 "Hg10 mi
4:58 AM44 °FClear.2 mph37%30.13 "Hg10 mi
3:58 AM44 °FClear.3 mph41%30.13 "Hg10 mi
2:58 AM44 °FClear.3 mph40%30.11 "Hg10 mi
1:58 AM48 °FClear.No wind29%30.11 "Hg10 mi
Weather by CustomWeather, © 2016

See weather overviewHow to use our weather pages